Погода Гусь-Хрустальный

Погода Гусь-Хрустальный : погода сейчас, прогноз погоды и архив. Всё, что Вы хотите узнать о погоде Гусь-Хрустальный!

Хотите узнать прогноз погоды Гусь-Хрустальный? Тогда Вам сюда: Погода Гусь-Хрустальный

Поиск расширенной информации на нашем сайте:

Другие новости

Новости СМИ2

Главная страница сайта

Новости сайта

03.07.2017

Напоминаем, что на нашем специализированном сайте Метеоцентр.Азия вы можете получить высокодетализированные автоматические прогнозы погоды по пунктам России, СНГ и мира в авиационном формате (включающие направление и скорость ветра, видимость, явления погоды, количество и форму облачности, нижнюю и верхнюю границу облачности).


Погода Гусь-Хрустальный - сегодня

Время (UTC), дата Ветер
(°,м/с) 
Видим.   Явления Облачность Т
(°С)
Тd
(°С)
f(%) Тe
(°С)
Pmin
(гПа)
dP
(гПа)
Po
(мм)
O2
(г/м3)
Тmin Tmax R s Состояние
почвы
18 18.01.18 140 (ЮВ) 4{10}  20000 м  позёмок{снег}  9/8 300 м средняя 
[Sc|As trans]
-6.3 -10.7 71 -10  1015.9  0.4  749  310           
21 18.01.18 140 (ЮВ) 20000 м  позёмок  8/8 300 м 
[Sc]
-6.1 -11.8 64 -9  1017.4  1.5  750  310           
00 19.01.18 140 (ЮВ) 20000 м    9/9 300 м 
[Sc]
-6.1 -11.8 64 -9  1017.8  0.4  750  310           
03 19.01.18 130 (ЮВ) 3{10}  20000 м    10/9 300 м средняя 
[Sc|As op]
-9.6 -17.4 53 -13  1019  751  315  -9.6      равномерный
сухой снег
100% 
06 19.01.18 120 (ЮВ) 20000 м    8/5 300 м средняя, верхняя 
[Sc|As trans|Cs]
-11.5 -19 54 -15  1019.4  0.2  751  317  -11.5         
09 19.01.18 120 (ЮВ) 20000 м    8/0 верхняя 
[Cs]
-9.5 -20.6 40 -11  1020.8  1.5  752  316           
12 19.01.18 110 (В) 20000 м    8/0 верхняя 
[Cs]
-7.2 -21.5 31 -9  1021  0.3  753  313           
15 19.01.18 100 (В) 20000 м    9/0 верхняя 
[Cs]
-10 -19.9 44 -13  1021.8  0.6  753  316    -7.1       
18 19.01.18 110 (В) 20000 м    8/0 верхняя 
[Cs]
-11.4 -20.1 49 -15  1022  0.1  753  318           
21 19.01.18 100 (В) 20000 м    8/0 верхняя 
[Cs]
-12.2 -18.3 60 -16  1021.1  -0.9  752  319           
00 20.01.18 100 (В) 20000 м    6/0 верхняя 
[Cs]
-12.7 -17 70 -16  1019.5  -1.6  751  319           
03 20.01.18 110 (В) 20000 м    8/0 верхняя 
[Cs]
-12.3 -15 80 -16  1018.3  -1.1  750  318  -12.9      равномерный
сухой снег
100% 
06 20.01.18 100 (В) 2000 м  снег  10/9 300 м средняя 
[Sc|As op]
-11.2 -13.3 84 -14  1016.6  -1.6  749  316           
09 20.01.18 100 (В) 4000 м  слаб. снег  10/9 300 м средняя 
[Sc|As op]
-8.8 -10.8 85 -12  1015.6  -0.8  748  313           
12 20.01.18 120 (ЮВ) 0500 м  сильн. снег  10/9 300 м средняя 
[Sc|As op]
-7.2 -8.7 89 -10  1014.3  -1.2  748  310           
15 20.01.18 130 (ЮВ) 10 км  {снег}  9/9 300 м средняя 
[Sc|As trans]
-8.3 -10.7 83 -11  1014.2  0.1  747  312    -7.1     
18 20.01.18 120 (ЮВ) 4000 м  слаб. снег  10/9 300 м кучево-дожд., средняя 
[Cb cap|As op]
-8.7 -10.7 85 -12  1014  -0.3  747  312           
21 20.01.18 110 (В) 4000 м  слаб. снег  10/9 300 м средняя 
[Sc|As op]
-8.2 -9.7 89 -10  1013.5  -0.4  747  311           
00 21.01.18 110 (В) 4000 м  слаб. снег  10/9 300 м средняя 
[Sc|As op]
-6.9 -8.1 91 -8  1013.1  -0.4  747  310           
03 21.01.18 120 (ЮВ) 4000 м  слаб. снег  10/9 300 м средняя 
[Sc|As op]
-4.4 -5.2 94 -6  1012.7  -0.2  747  306  -8.9    0.6  равномерный
сухой снег
100% 
06 21.01.18 130 (ЮВ) 20000 м  {снег}  10/10 300 м 
[Sc]
-3.6 -4.7 92 -5  1013.2  0.5  747  306           
09 21.01.18 100 (В) 20000 м    10/10 300 м 
[Sc]
-4 -5.5 89 -5  1012.7  -0.5  747  306           
12 21.01.18 080 (В) 10 км  слаб. снег  10/10 300 м 
[Sc]
-5.1 -7.7 82 -6  1011.6  -1.2  746  307           
15 21.01.18 040 (СВ) 1000 м  снег  10/10 300 м 
[Ns]
-5.7 -6.7 93 -7  1010.4  -1.2  745  307    -3.6  0.8     
18 21.01.18 030 (СВ) 0500 м  сильн. снег  10/10 300 м 
[Ns]
-6.1 -6.9 94 -8  1008.3  -2.1  743  307           
Время (UTC), дата Ветер
(°,м/с) 
Видим.   Явления Облачность Т
(°С)
Тd
(°С)
f(%) Тe
(°С)
Pmin
(гПа)
dP
(гПа)
Po
(мм)
O2
(г/м3)
Тmin Tmax R s Состояние
почвы

Для получения пояснительной информации подведите курсор к названию столбца.

ПОГОДА Гусь-Хрустальный - архив

Всё, что Вы хотите узнать о погоде Гусь-Хрустальный - удобно и подробно!

Выберите нужную дату (начиная с 1 января 2015* года) и нажмите кнопку "Найти".
Будут отображены архивные сводки погоды по пункту Гусь-Хрустальный, начиная с указанной даты.


Отображать данные в формате CSV (для использования в таблицах Excel)


Внимание! Наш архив погоды предназначен исключительно для личного некоммерческого использования в познавательных целях. Если Вам необходимы официальные справки о состоянии погоды (для производственных, юридических, коммерческих и т.п. целей), обращайтесь в органы Росгидромета.

*Примечание: данная дата относится к архиву по метеостанциям СССР (Россия, СНГ, Балтия).
Архив по метеостанциям Зарубежной Европы и Азии (кроме Китая) хранится 10 дней, по другим регионам земного шара (Китай, Африка, Америка, Австралия, Океания) - 1 день.

Гусь-Хрустальный - район местоположения метеостанции


Название, широта, долгота, высота метеостанции:
Гусь-Хрустальный 55.6°ш. 40.6°д. 136 м над ур. моря [Российская Федерация]

Дополнительная информация

В oтличие oт бoльшинства пoгoдных сайтoв мы публикуем пoдрoбную метеoинфoрмацию в детальнoм прoфессиoнальнoм фoрмате.

Характеристики температуры и влажнoсти вoздуха измеряются на высoте 2 м в тени вдали oт зданий и деревьев.
Скoрoсть ветра измеряется на высoте 10 м (на урoвне рoста челoвека скoрoсть ветра ниже в 1.5-2 раза). Если метеoстанция нахoдится в гoрoде или в лесу, тo скoрoсть ветра занижена на 2-4 м/с пo сравнению с oткрытым местoм. Скoрoсть ветра над акватoриями крупных рек и oзёр, а также на вершинах хoлмoв на 2-5 м/с выше, чем в oбычных услoвиях.
Атмoсфернoе давление в разных тoчках местнoсти мoжет значительнo oтличаться oт давления на метеoстанции, в зависимoсти oт услoвий рельефа (при пoдъёме на 10 м давление пoнижается примернo на 1 мм рт.ст.).